Location: Sumpter
(44.7457°N, 118.2022°W)
Time: 00:26:37
(UTC-07:00)

ISS - Pass Details

Date: 26 February 2019
Orbit: 406 x 411 km, 51.6° (Epoch: 21 March)

Event Time Altitude Azimuth Distance (km) Brightness Sun altitude
Exits shadow 04:18:40 18° 131° (SE) 1,065 -1.4 -25.0°
Drops below altitude 10° 04:20:49 10° 90° (E) 1,461 0.0 -24.6°
Sets 04:23:19 0° 70° (ENE) 2,325 1.4 -24.2°
